Location: *
(33.8649°S, 62.1526°E)
Time: 13:03:58
(UTC+00:00)

USA 215 - Pass Details

Date: 17 January 2021
Orbit: 1103 x 1105 km, 123.0° (Epoch: 14 February)

Event Time Altitude Azimuth Distance (km) Brightness Sun altitude
Exits shadow 16:17:41 17° 71° (ENE) 2,511 4.6 -13.8°
Maximum altitude 16:22:41 50° 140° (SE) 1,390 3.8 -14.6°
Drops below altitude 10° 16:29:00 10° 213° (SSW) 2,988 6.7 -15.7°
Sets 16:31:34 0° 217° (SW) 3,950 7.8 -16.1°
